Radioactive Concentration measured by Seawater Radiation Monitor near Fukushima Daiichi Nuclear Power Station
Date,Time,Cs137(Bq/L),Cs134(Bq/L),Total β(Bq/L)
2019/01/30,00:00,0.22,ND,18
2019/01/30,00:10,0.21,ND,16
2019/01/30,00:20,0.24,ND,17
2019/01/30,00:30,0.24,ND,14
2019/01/30,00:40,0.24,ND,14
2019/01/30,00:50,0.26,ND,15
2019/01/30,01:00,0.26,ND,17
2019/01/30,01:10,0.28,ND,18
2019/01/30,01:20,0.26,ND,18
2019/01/30,01:30,0.25,ND,20
2019/01/30,01:40,0.25,ND,21
2019/01/30,01:50,0.22,ND,20
2019/01/30,02:00,0.20,ND,17
2019/01/30,02:10,0.19,ND,21
2019/01/30,02:20,0.19,ND,21
2019/01/30,02:30,0.25,ND,19
2019/01/30,02:40,0.21,ND,16
2019/01/30,02:50,0.22,ND,14
2019/01/30,03:00,0.23,ND,16
2019/01/30,03:10,0.22,ND,13
2019/01/30,03:20,0.20,ND,12
2019/01/30,03:30,0.19,ND,15
2019/01/30,03:40,0.18,ND,16
2019/01/30,03:50,0.20,ND,18
2019/01/30,04:00,0.21,ND,17
2019/01/30,04:10,0.22,ND,16
2019/01/30,04:20,0.22,ND,16
2019/01/30,04:30,0.23,ND,13
2019/01/30,04:40,0.22,ND,14
2019/01/30,04:50,0.21,ND,16
2019/01/30,05:00,0.21,ND,14
2019/01/30,05:10,0.21,ND,15
2019/01/30,05:20,0.22,ND,13
2019/01/30,05:30,0.22,ND,16
2019/01/30,05:40,0.22,ND,16
2019/01/30,05:50,0.23,ND,15
2019/01/30,06:00,0.24,ND,17
2019/01/30,06:10,0.25,ND,18
2019/01/30,06:20,0.24,ND,20
2019/01/30,06:30,0.24,ND,19
2019/01/30,06:40,0.23,ND,20
2019/01/30,06:50,0.22,ND,18
2019/01/30,07:00,0.27,ND,20
2019/01/30,07:10,0.23,ND,16
2019/01/30,07:20,0.24,ND,17
2019/01/30,07:30,0.22,ND,18
2019/01/30,07:40,0.24,ND,16
2019/01/30,07:50,0.23,ND,15
2019/01/30,08:00,0.21,ND,11
2019/01/30,08:10,0.21,ND,11
2019/01/30,08:20,0.21,ND,11
2019/01/30,08:30,0.21,ND,ND
2019/01/30,08:40,0.20,ND,8.9
2019/01/30,08:50,0.21,ND,10
2019/01/30,09:00,0.22,ND,12
2019/01/30,09:10,0.21,ND,15
2019/01/30,09:20,0.21,ND,14
2019/01/30,09:30,0.20,ND,13
2019/01/30,09:40,0.21,ND,16
2019/01/30,09:50,0.22,ND,16
2019/01/30,10:00,0.21,ND,16
2019/01/30,10:10,0.21,ND,14
2019/01/30,10:20,0.21,ND,14
2019/01/30,10:30,0.24,ND,17
2019/01/30,10:40,0.23,ND,16
2019/01/30,10:50,0.24,ND,14
2019/01/30,11:00,0.24,ND,14
2019/01/30,11:10,0.24,ND,15
2019/01/30,11:20,0.28,ND,15
2019/01/30,11:30,0.22,ND,12
2019/01/30,11:40,0.22,ND,12
2019/01/30,11:50,0.23,ND,13
2019/01/30,12:00,0.24,ND,12
2019/01/30,12:10,0.25,ND,11
2019/01/30,12:20,0.25,ND,12
2019/01/30,12:30,0.25,ND,14
2019/01/30,12:40,0.24,ND,14
2019/01/30,12:50,0.23,ND,14
2019/01/30,13:00,0.21,ND,15
2019/01/30,13:10,0.21,ND,16
2019/01/30,13:20,0.20,ND,14
2019/01/30,13:30,0.21,ND,12
2019/01/30,13:40,0.21,ND,14
2019/01/30,13:50,0.22,ND,15
2019/01/30,14:00,0.26,ND,13
2019/01/30,14:10,0.24,ND,16
2019/01/30,14:20,0.24,ND,17
2019/01/30,14:30,0.25,ND,18
2019/01/30,14:40,0.22,ND,16
2019/01/30,14:50,0.22,ND,13
2019/01/30,15:00,0.20,ND,15
2019/01/30,15:10,0.22,ND,14
2019/01/30,15:20,0.24,ND,14
2019/01/30,15:30,0.23,ND,17
2019/01/30,15:40,0.25,ND,17
2019/01/30,15:50,0.27,ND,16
2019/01/30,16:00,0.27,ND,16
2019/01/30,16:10,0.27,ND,16
2019/01/30,16:20,0.27,ND,17
2019/01/30,16:30,0.28,ND,14
2019/01/30,16:40,0.28,ND,17
2019/01/30,16:50,0.28,ND,18
2019/01/30,17:00,0.28,ND,18
2019/01/30,17:10,0.30,ND,16
2019/01/30,17:20,0.31,ND,15
2019/01/30,17:30,0.31,ND,15
2019/01/30,17:40,0.31,ND,15
2019/01/30,17:50,0.31,ND,13
2019/01/30,18:00,0.31,ND,13
2019/01/30,18:10,0.28,ND,11
2019/01/30,18:20,0.27,ND,12
2019/01/30,18:30,0.26,ND,11
2019/01/30,18:40,0.26,ND,9.5
2019/01/30,18:50,0.26,ND,12
2019/01/30,19:00,0.27,ND,12
2019/01/30,19:10,0.29,ND,13
2019/01/30,19:20,0.30,ND,14
2019/01/30,19:30,0.30,ND,14
2019/01/30,19:40,0.31,ND,13
2019/01/30,19:50,0.32,ND,11
2019/01/30,20:00,0.32,ND,9.2
2019/01/30,20:10,0.30,ND,11
2019/01/30,20:20,0.30,ND,11
2019/01/30,20:30,0.31,ND,12
2019/01/30,20:40,0.30,ND,12
2019/01/30,20:50,0.30,ND,13
2019/01/30,21:00,0.29,ND,14
2019/01/30,21:10,0.30,ND,14
2019/01/30,21:20,0.29,ND,11
2019/01/30,21:30,0.28,ND,9.0
2019/01/30,21:40,0.29,ND,8.8
2019/01/30,21:50,0.29,ND,11
2019/01/30,22:00,0.28,ND,9.9
2019/01/30,22:10,0.28,ND,11
2019/01/30,22:20,0.30,ND,14
2019/01/30,22:30,0.31,ND,14
2019/01/30,22:40,0.29,ND,15
2019/01/30,22:50,0.30,ND,13
2019/01/30,23:00,0.30,ND,14
2019/01/30,23:10,0.29,ND,12
2019/01/30,23:20,0.28,ND,14
2019/01/30,23:30,0.27,ND,16
2019/01/30,23:40,0.26,ND,13
2019/01/30,23:50,0.27,ND,14
